QPF
0.03 0.02 0.01 0.01 0.01 0.01 0.02 0.01 0.01 0.03 0.02 0.01 0.01 0.01 0.01 0.01 0.02 0.02 0.02 0.03 0.03 0.04 0.04 0.03 0.04 0.05 0.05 0.04 0.03 0.04 0.03 0.02 0.02 0.02 0.04 0.04 0.03 0.04 0.04 0.05 0.09 0.07 0.09
0.02 0.02 0.02 0.02 0.01 0.03 0.03 0.01 0.01 0.02 0.01 0.01 0.01 0.00 0.01 0.01 0.02 0.02 0.02 0.03 0.04 0.05 0.03 0.04 0.05 0.05 0.06 0.04 0.04 0.04 0.03 0.03 0.02 0.02 0.02 0.02 0.02 0.03 0.04 0.07 0.07 0.04 0.06
0.02 0.01 0.02 0.02 0.01 0.03 0.04 0.02 0.02 0.02 0.02 0.01 0.00 0.00 0.01 0.01 0.02 0.03 0.03 0.04 0.04 0.05 0.06 0.06 0.06 0.06 0.05 0.04 0.04 0.04 0.02 0.02 0.03 0.03 0.03 0.02 0.02 0.01 0.02 0.03 0.03 0.03 0.03
0.02 0.02 0.01 0.02 0.02 0.04 0.06 0.04 0.03 0.02 0.02 0.01 0.01 0.01 0.01 0.01 0.02 0.03 0.04 0.05 0.06 0.07 0.07 0.07 0.06 0.05 0.05 0.04 0.05 0.04 0.03 0.03 0.03 0.04 0.04 0.03 0.02 0.02 0.02 0.02 0.02 0.02 0.02
0.02 0.02 0.01 0.01 0.02 0.03 0.05 0.07 0.03 0.02 0.02 0.01 0.01 0.01 0.01 0.01 0.02 0.03 0.02 0.04 0.05 0.07 0.08 0.08 0.06 0.06 0.05 0.04 0.05 0.05 0.04 0.04 0.04 0.05 0.05 0.05 0.03 0.03 0.03 0.03 0.03 0.02 0.02
0.02 0.02 0.01 0.01 0.01 0.02 0.04 0.05 0.04 0.04 0.03 0.02 0.02 0.01 0.01 0.02 0.03 0.03 0.03 0.04 0.05 0.05 0.07 0.07 0.07 0.06 0.06 0.06 0.06 0.05 0.05 0.06 0.06 0.06 0.07 0.07 0.06 0.05 0.05 0.04 0.03 0.02 0.01
0.02 0.03 0.02 0.01 0.02 0.02 0.03 0.03 0.04 0.09 0.10 0.05 0.01 0.02 0.02 0.03 0.04 0.03 0.03 0.04 0.04 0.05 0.07 0.07 0.06 0.07 0.09 0.07 0.05 0.05 0.05 0.05 0.05 0.05 0.07 0.08 0.09 0.07 0.05 0.04 0.02 0.01 0.01
0.01 0.01 0.01 0.01 0.02 0.02 0.02 0.02 0.03 0.03 0.07 0.08 0.03 0.03 0.04 0.04 0.06 0.07 0.05 0.05 0.04 0.04 0.04 0.04 0.03 0.04 0.06 0.06 0.05 0.04 0.04 0.04 0.04 0.04 0.05 0.06 0.07 0.08 0.06 0.05 0.05 0.03 0.02
0.01 0.01 0.00 0.01 0.01 0.02 0.02 0.02 0.02 0.02 0.02 0.04 0.03 0.04 0.06 0.06 0.06 0.06 0.07 0.07 0.06 0.05 0.04 0.03 0.02 0.02 0.03 0.03 0.05 0.04 0.05 0.03 0.03 0.04 0.03 0.03 0.04 0.07 0.05 0.05 0.06 0.06 0.04
0.00 0.00 0.00 0.00 0.01 0.01 0.02 0.02 0.02 0.02 0.01 0.02 0.02 0.03 0.05 0.07 0.07 0.08 0.11 0.09 0.07 0.06 0.05 0.04 0.03 0.02 0.02 0.02 0.02 0.04 0.05 0.04 0.03 0.03 0.03 0.02 0.04 0.05 0.05 0.05 0.04 0.05 0.04
0.00 0.00 0.00 0.00 0.00 0.02 0.03 0.03 0.02 0.01 0.01 0.01 0.02 0.01 0.02 0.04 0.06 0.07 0.08 0.07 0.08 0.07 0.06 0.05 0.04 0.03 0.03 0.03 0.03 0.04 0.05 0.04 0.03 0.03 0.02 0.02 0.03 0.05 0.06 0.04 0.03 0.04 0.04
0.01 0.00 0.00 0.00 0.01 0.02 0.03 0.03 0.01 0.01 0.01 0.01 0.02 0.02 0.03 0.03 0.02 0.02 0.04 0.06 0.06 0.05 0.05 0.06 0.06 0.08 0.07 0.07 0.06 0.06 0.06 0.05 0.04 0.03 0.02 0.02 0.03 0.03 0.04 0.02 0.02 0.02 0.03
0.01 0.01 0.01 0.01 0.01 0.01 0.01 0.01 0.00 0.01 0.01 0.01 0.01 0.02 0.02 0.02 0.01 0.02 0.04 0.06 0.08 0.08 0.07 0.06 0.05 0.06 0.09 0.10 0.09 0.07 0.07 0.05 0.03 0.02 0.02 0.02 0.03 0.02 0.02 0.02 0.02 0.01 0.02
0.01 0.01 0.01 0.01 0.01 0.01 0.01 0.01 0.01 0.00 0.01 0.02 0.02 0.02 0.03 0.02 0.02 0.04 0.06 0.07 0.08 0.09 0.09 0.06 0.04 0.04 0.05 0.06 0.06 0.05 0.05 0.04 0.03 0.03 0.03 0.03 0.03 0.02 0.02 0.02 0.02 0.02 0.01
0.01 0.00 0.01 0.01 0.01 0.01 0.01 0.01 0.01 0.01 0.01 0.02 0.04 0.02 0.02 0.02 0.03 0.04 0.05 0.07 0.08 0.07 0.06 0.06 0.05 0.05 0.04 0.04 0.04 0.03 0.03 0.02 0.02 0.01 0.02 0.02 0.02 0.02 0.02 0.02 0.03 0.02 0.01
0.00 0.00 0.01 0.01 0.01 0.01 0.01 0.01 0.02 0.01 0.01 0.03 0.05 0.03 0.02 0.03 0.03 0.04 0.05 0.05 0.05 0.05 0.06 0.07 0.06 0.05 0.04 0.04 0.04 0.04 0.03 0.03 0.02 0.02 0.02 0.02 0.03 0.03 0.03 0.04 0.04 0.03 0.02
0.00 0.01 0.01 0.00 0.01 0.01 0.00 0.00 0.01 0.02 0.02 0.05 0.06 0.04 0.03 0.03 0.03 0.02 0.02 0.03 0.05 0.06 0.05 0.05 0.06 0.05 0.04 0.04 0.04 0.04 0.05 0.04 0.04 0.04 0.04 0.03 0.03 0.03 0.02 0.03 0.02 0.02 0.02
0.01 0.01 0.00 0.01 0.01 0.01 0.01 0.01 0.02 0.03 0.03 0.07 0.05 0.03 0.03 0.03 0.02 0.02 0.02 0.03 0.04 0.06 0.07 0.07 0.07 0.06 0.05 0.05 0.04 0.04 0.05 0.04 0.04 0.05 0.06 0.06 0.06 0.06 0.05 0.05 0.04 0.03 0.02
0.01 0.01 0.01 0.01 0.01 0.01 0.01 0.01 0.01 0.02 0.03 0.03 0.03 0.05 0.06 0.05 0.04 0.02 0.03 0.03 0.03 0.03 0.04 0.06 0.08 0.08 0.05 0.05 0.05 0.05 0.04 0.04 0.04 0.04 0.05 0.05 0.04 0.05 0.05 0.04 0.03 0.02 0.02
0.01 0.01 0.01 0.01 0.01 0.01 0.01 0.01 0.01 0.01 0.02 0.03 0.04 0.07 0.06 0.03 0.02 0.02 0.03 0.02 0.01 0.01 0.02 0.03 0.04 0.06 0.06 0.07 0.07 0.07 0.07 0.05 0.04 0.04 0.04 0.04 0.03 0.04 0.05 0.04 0.03 0.03 0.03
0.00 0.01 0.00 0.01 0.01 0.01 0.01 0.01 0.01 0.02 0.05 0.06 0.06 0.07 0.05 0.02 0.01 0.02 0.02 0.01 0.01 0.01 0.02 0.02 0.02 0.03 0.04 0.04 0.05 0.07 0.07 0.05 0.05 0.04 0.03 0.03 0.04 0.04 0.04 0.04 0.04 0.04 0.04
0.00 0.01 0.01 0.01 0.01 0.01 0.01 0.01 0.02 0.03 0.04 0.05 0.12 0.08 0.02 0.01 0.01 0.01 0.01 0.02 0.01 0.01 0.02 0.03 0.03 0.02 0.03 0.03 0.05 0.08 0.06 0.05 0.05 0.05 0.04 0.04 0.04 0.04 0.05 0.06 0.05 0.05 0.04
0.01 0.01 0.02 0.02 0.02 0.02 0.02 0.01 0.02 0.02 0.03 0.04 0.08 0.03 0.02 0.02 0.02 0.02 0.02 0.02 0.02 0.02 0.02 0.02 0.03 0.04 0.04 0.04 0.06 0.09 0.09 0.07 0.05 0.04 0.05 0.05 0.05 0.05 0.05 0.06 0.07 0.06 0.04
0.01 0.02 0.02 0.02 0.02 0.02 0.01 0.01 0.01 0.01 0.01 0.02 0.03 0.03 0.03 0.03 0.02 0.03 0.03 0.03 0.02 0.02 0.02 0.03 0.03 0.03 0.04 0.04 0.04 0.05 0.07 0.08 0.06 0.05 0.05 0.05 0.04 0.05 0.06 0.08 0.10 0.09 0.06
0.01 0.02 0.02 0.02 0.02 0.01 0.01 0.01 0.01 0.01 0.00 0.01 0.01 0.02 0.02 0.02 0.02 0.03 0.03 0.04 0.04 0.04 0.04 0.04 0.04 0.04 0.04 0.04 0.05 0.05 0.07 0.08 0.09 0.08 0.07 0.06 0.06 0.06 0.06 0.06 0.07 0.06 0.05
0.01 0.01 0.02 0.01 0.01 0.01 0.02 0.02 0.02 0.02 0.01 0.01 0.01 0.01 0.01 0.01 0.02 0.02 0.03 0.04 0.05 0.06 0.08 0.09 0.08 0.06 0.07 0.09 0.10 0.10 0.11 0.12 0.12 0.12 0.11 0.10 0.08 0.07 0.06 0.05 0.04 0.03 0.03
MSLP
1009.22 1009.24 1009.24 1009.22 1009.18 1009.13 1009.10 1009.12 1009.21 1009.36 1009.57 1009.79 1009.99 1010.13 1010.17 1010.11 1009.96 1009.75 1009.52 1009.33 1009.20 1009.17 1009.24 1009.42 1009.68 1010.00 1010.36 1010.74 1011.12 1011.50 1011.87 1012.24 1012.60 1012.94 1013.25 1013.51 1013.71 1013.83 1013.89 1013.88 1013.82 1013.74 1013.65
1008.98 1009.04 1009.09 1009.11 1009.09 1009.07 1009.05 1009.09 1009.21 1009.40 1009.66 1009.95 1010.22 1010.41 1010.51 1010.48 1010.35 1010.13 1009.89 1009.66 1009.50 1009.44 1009.50 1009.66 1009.90 1010.22 1010.56 1010.92 1011.28 1011.64 1012.00 1012.36 1012.71 1013.06 1013.38 1013.66 1013.87 1014.00 1014.05 1014.03 1013.94 1013.82 1013.70
1008.57 1008.67 1008.77 1008.84 1008.88 1008.89 1008.91 1008.98 1009.13 1009.36 1009.67 1010.01 1010.34 1010.60 1010.75 1010.78 1010.68 1010.49 1010.26 1010.03 1009.86 1009.78 1009.81 1009.93 1010.14 1010.41 1010.70 1011.01 1011.32 1011.64 1011.96 1012.29 1012.63 1012.98 1013.31 1013.60 1013.84 1014.00 1014.06 1014.05 1013.97 1013.85 1013.71
1008.09 1008.20 1008.35 1008.47 1008.56 1008.62 1008.67 1008.77 1008.94 1009.20 1009.54 1009.92 1010.29 1010.60 1010.81 1010.90 1010.85 1010.71 1010.52 1010.32 1010.15 1010.07 1010.07 1010.16 1010.32 1010.53 1010.76 1011.00 1011.24 1011.49 1011.76 1012.05 1012.37 1012.71 1013.05 1013.37 1013.63 1013.83 1013.93 1013.96 1013.91 1013.81 1013.70
1007.69 1007.79 1007.94 1008.09 1008.21 1008.30 1008.38 1008.49 1008.67 1008.93 1009.27 1009.65 1010.04 1010.38 1010.63 1010.77 1010.78 1010.70 1010.56 1010.41 1010.28 1010.20 1010.20 1010.27 1010.39 1010.54 1010.71 1010.88 1011.05 1011.24 1011.46 1011.71 1012.00 1012.32 1012.66 1013.00 1013.29 1013.53 1013.68 1013.75 1013.76 1013.71 1013.64
1007.53 1007.57 1007.69 1007.83 1007.94 1008.03 1008.10 1008.20 1008.35 1008.57 1008.87 1009.23 1009.59 1009.93 1010.19 1010.36 1010.42 1010.40 1010.32 1010.23 1010.15 1010.11 1010.12 1010.19 1010.29 1010.41 1010.54 1010.66 1010.79 1010.93 1011.09 1011.31 1011.57 1011.87 1012.21 1012.55 1012.87 1013.14 1013.34 1013.46 1013.52 1013.53 1013.51
1007.74 1007.68 1007.72 1007.80 1007.86 1007.90 1007.92 1007.96 1008.04 1008.19 1008.42 1008.69 1009.00 1009.29 1009.53 1009.70 1009.80 1009.82 1009.80 1009.76 1009.74 1009.76 1009.81 1009.90 1010.02 1010.14 1010.26 1010.37 1010.47 1010.58 1010.72 1010.91 1011.14 1011.43 1011.75 1012.08 1012.41 1012.70 1012.93 1013.10 1013.21 1013.28 1013.32
1008.39 1008.19 1008.11 1008.07 1008.04 1007.98 1007.92 1007.86 1007.84 1007.88 1007.98 1008.15 1008.35 1008.56 1008.75 1008.89 1008.98 1009.03 1009.05 1009.07 1009.11 1009.18 1009.29 1009.43 1009.58 1009.74 1009.88 1010.00 1010.12 1010.23 1010.36 1010.53 1010.75 1011.01 1011.30 1011.62 1011.93 1012.23 1012.48 1012.68 1012.83 1012.94 1013.03
1009.42 1009.08 1008.85 1008.68 1008.51 1008.33 1008.14 1007.96 1007.81 1007.71 1007.68 1007.70 1007.78 1007.87 1007.97 1008.05 1008.11 1008.15 1008.19 1008.24 1008.33 1008.45 1008.62 1008.81 1009.02 1009.22 1009.41 1009.58 1009.73 1009.86 1010.01 1010.17 1010.37 1010.60 1010.86 1011.15 1011.44 1011.72 1011.98 1012.20 1012.38 1012.54 1012.67
1010.72 1010.24 1009.87 1009.55 1009.25 1008.94 1008.61 1008.30 1008.01 1007.77 1007.58 1007.46 1007.39 1007.36 1007.34 1007.34 1007.33 1007.34 1007.36 1007.42 1007.52 1007.67 1007.87 1008.11 1008.37 1008.63 1008.87 1009.09 1009.28 1009.45 1009.61 1009.77 1009.95 1010.16 1010.39 1010.64 1010.91 1011.17 1011.42 1011.65 1011.86 1012.06 1012.24
1012.09 1011.51 1011.03 1010.59 1010.16 1009.73 1009.28 1008.85 1008.44 1008.06 1007.75 1007.49 1007.28 1007.11 1006.98 1006.86 1006.77 1006.71 1006.68 1006.70 1006.79 1006.93 1007.14 1007.40 1007.69 1007.98 1008.26 1008.52 1008.74 1008.94 1009.12 1009.28 1009.45 1009.63 1009.83 1010.04 1010.28 1010.52 1010.77 1011.02 1011.26 1011.50 1011.72
1013.35 1012.71 1012.15 1011.63 1011.11 1010.59 1010.06 1009.54 1009.03 1008.56 1008.14 1007.76 1007.44 1007.15 1006.89 1006.67 1006.48 1006.32 1006.22 1006.18 1006.21 1006.31 1006.49 1006.73 1007.00 1007.30 1007.59 1007.86 1008.10 1008.31 1008.49 1008.65 1008.80 1008.95 1009.12 1009.31 1009.52 1009.76 1010.01 1010.28 1010.56 1010.84 1011.13
1014.33 1013.69 1013.10 1012.53 1011.97 1011.40 1010.83 1010.26 1009.70 1009.17 1008.67 1008.21 1007.80 1007.41 1007.05 1006.73 1006.43 1006.18 1005.98 1005.85 1005.80 1005.83 1005.94 1006.12 1006.36 1006.62 1006.88 1007.14 1007.36 1007.56 1007.72 1007.85 1007.97 1008.10 1008.24 1008.40 1008.60 1008.84 1009.11 1009.41 1009.74 1010.08 1010.43
1014.96 1014.34 1013.76 1013.19 1012.63 1012.05 1011.47 1010.88 1010.31 1009.75 1009.22 1008.71 1008.24 1007.78 1007.34 1006.93 1006.54 1006.19 1005.90 1005.68 1005.53 1005.47 1005.50 1005.60 1005.76 1005.96 1006.17 1006.37 1006.55 1006.70 1006.82 1006.92 1007.00 1007.09 1007.19 1007.34 1007.52 1007.77 1008.06 1008.40 1008.79 1009.19 1009.61
1015.23 1014.66 1014.10 1013.56 1013.01 1012.45 1011.88 1011.31 1010.74 1010.19 1009.65 1009.12 1008.61 1008.11 1007.62 1007.14 1006.68 1006.26 1005.88 1005.57 1005.34 1005.19 1005.12 1005.14 1005.21 1005.33 1005.46 1005.59 1005.71 1005.79 1005.85 1005.89 1005.91 1005.95 1006.02 1006.13 1006.31 1006.56 1006.87 1007.26 1007.69 1008.16 1008.65
1015.21 1014.67 1014.15 1013.63 1013.11 1012.57 1012.02 1011.47 1010.92 1010.38 1009.84 1009.31 1008.78 1008.26 1007.73 1007.22 1006.71 1006.24 1005.80 1005.43 1005.13 1004.91 1004.77 1004.71 1004.71 1004.74 1004.79 1004.85 1004.88 1004.89 1004.87 1004.83 1004.79 1004.77 1004.78 1004.86 1005.01 1005.25 1005.58 1006.00 1006.48 1007.01 1007.56
1014.98 1014.48 1013.97 1013.47 1012.95 1012.43 1011.89 1011.36 1010.82 1010.28 1009.75 1009.21 1008.68 1008.14 1007.60 1007.07 1006.54 1006.04 1005.58 1005.18 1004.84 1004.58 1004.40 1004.28 1004.22 1004.19 1004.18 1004.15 1004.11 1004.04 1003.94 1003.82 1003.70 1003.60 1003.55 1003.58 1003.69 1003.91 1004.24 1004.67 1005.19 1005.76 1006.36
1014.67 1014.15 1013.64 1013.13 1012.60 1012.07 1011.53 1010.99 1010.44 1009.90 1009.36 1008.82 1008.28 1007.73 1007.19 1006.65 1006.12 1005.62 1005.16 1004.76 1004.42 1004.15 1003.96 1003.82 1003.73 1003.66 1003.60 1003.52 1003.42 1003.27 1003.09 1002.89 1002.69 1002.52 1002.39 1002.36 1002.42 1002.61 1002.92 1003.35 1003.87 1004.47 1005.12
1014.33 1013.79 1013.24 1012.69 1012.14 1011.57 1011.01 1010.44 1009.88 1009.32 1008.76 1008.20 1007.65 1007.09 1006.54 1006.00 1005.48 1005.00 1004.56 1004.18 1003.86 1003.61 1003.43 1003.30 1003.21 1003.13 1003.04 1002.93 1002.78 1002.58 1002.33 1002.06 1001.78 1001.53 1001.34 1001.23 1001.24 1001.38 1001.66 1002.08 1002.61 1003.22 1003.90
1014.00 1013.41 1012.82 1012.22 1011.62 1011.01 1010.41 1009.81 1009.21 1008.62 1008.04 1007.46 1006.88 1006.31 1005.75 1005.22 1004.71 1004.24 1003.82 1003.47 1003.19 1002.97 1002.82 1002.71 1002.63 1002.56 1002.46 1002.33 1002.15 1001.91 1001.62 1001.29 1000.95 1000.64 1000.38 1000.22 1000.17 1000.27 1000.52 1000.92 1001.44 1002.07 1002.77
1013.67 1013.02 1012.38 1011.72 1011.07 1010.43 1009.78 1009.15 1008.52 1007.90 1007.29 1006.69 1006.09 1005.50 1004.94 1004.40 1003.89 1003.44 1003.04 1002.71 1002.46 1002.27 1002.14 1002.05 1001.98 1001.92 1001.82 1001.68 1001.48 1001.22 1000.89 1000.53 1000.15 999.80 999.50 999.30 999.22 999.28 999.51 999.90 1000.42 1001.06 1001.78
1013.29 1012.60 1011.90 1011.21 1010.52 1009.84 1009.17 1008.51 1007.86 1007.22 1006.59 1005.97 1005.35 1004.75 1004.17 1003.62 1003.12 1002.67 1002.27 1001.95 1001.70 1001.52 1001.40 1001.32 1001.25 1001.18 1001.08 1000.93 1000.72 1000.44 1000.11 999.73 999.34 998.96 998.65 998.43 998.34 998.40 998.63 999.02 999.55 1000.20 1000.95
1012.84 1012.10 1011.37 1010.65 1009.94 1009.24 1008.57 1007.90 1007.25 1006.60 1005.96 1005.33 1004.71 1004.10 1003.51 1002.95 1002.43 1001.97 1001.57 1001.23 1000.97 1000.77 1000.63 1000.53 1000.44 1000.35 1000.23 1000.07 999.85 999.56 999.22 998.85 998.46 998.10 997.81 997.60 997.53 997.61 997.86 998.27 998.82 999.50 1000.28
1012.28 1011.52 1010.77 1010.04 1009.33 1008.64 1007.96 1007.31 1006.66 1006.02 1005.39 1004.76 1004.14 1003.53 1002.93 1002.36 1001.83 1001.35 1000.93 1000.57 1000.27 1000.03 999.85 999.71 999.58 999.45 999.29 999.10 998.87 998.58 998.25 997.89 997.53 997.21 996.95 996.80 996.78 996.90 997.19 997.64 998.23 998.95 999.75
1011.65 1010.87 1010.12 1009.39 1008.69 1008.01 1007.35 1006.71 1006.08 1005.45 1004.83 1004.21 1003.60 1002.99 1002.40 1001.83 1001.29 1000.79 1000.34 999.94 999.60 999.32 999.08 998.88 998.69 998.51 998.31 998.09 997.84 997.55 997.23 996.91 996.60 996.33 996.14 996.05 996.09 996.28 996.63 997.13 997.77 998.52 999.35
1010.99 1010.21 1009.45 1008.73 1008.04 1007.37 1006.72 1006.09 1005.47 1004.85 1004.24 1003.63 1003.03 1002.43 1001.85 1001.28 1000.74 1000.23 999.77 999.34 998.97 998.64 998.35 998.08 997.84 997.61 997.37 997.13 996.86 996.58 996.28 996.00 995.75 995.55 995.43 995.42 995.54 995.80 996.21 996.77 997.45 998.23 999.09
Thickness
5791 5792 5791 5789 5787 5784 5783 5781 5779 5777 5776 5773 5770 5768 5767 5767 5767 5767 5766 5765 5764 5763 5762 5760 5759 5758 5756 5755 5755 5753 5751 5749 5749 5745 5742 5742 5744 5744 5743 5743 5743 5742 5741
5789 5790 5790 5788 5786 5785 5783 5782 5780 5778 5776 5774 5772 5770 5768 5768 5767 5767 5766 5765 5764 5763 5762 5760 5758 5757 5755 5754 5753 5751 5748 5747 5747 5743 5737 5734 5735 5739 5741 5740 5740 5740 5739
5790 5790 5789 5788 5787 5785 5784 5783 5781 5779 5777 5775 5772 5770 5768 5767 5766 5765 5764 5764 5763 5762 5761 5759 5757 5756 5755 5752 5751 5750 5747 5744 5744 5743 5739 5732 5728 5732 5736 5737 5738 5737 5736
5793 5792 5791 5789 5788 5787 5786 5784 5782 5779 5777 5775 5772 5768 5765 5762 5763 5763 5763 5763 5763 5762 5760 5759 5756 5755 5754 5752 5751 5750 5748 5745 5741 5740 5740 5738 5735 5729 5728 5732 5734 5735 5734
5796 5794 5793 5792 5791 5790 5788 5785 5782 5780 5778 5775 5772 5769 5766 5764 5763 5763 5762 5761 5761 5761 5759 5758 5756 5755 5753 5751 5750 5748 5747 5745 5742 5739 5738 5736 5734 5732 5728 5725 5728 5730 5732
5798 5797 5796 5794 5792 5791 5788 5785 5782 5780 5778 5776 5773 5769 5766 5764 5762 5761 5760 5759 5759 5759 5758 5757 5755 5754 5753 5751 5749 5748 5746 5744 5742 5740 5738 5735 5732 5730 5728 5725 5725 5725 5728
5798 5796 5794 5792 5790 5789 5788 5785 5782 5779 5778 5775 5773 5770 5767 5765 5762 5761 5760 5758 5757 5757 5757 5756 5755 5753 5752 5750 5748 5747 5745 5743 5741 5739 5737 5736 5735 5733 5730 5727 5724 5723 5725
5798 5796 5795 5793 5791 5789 5787 5785 5782 5779 5777 5775 5773 5770 5768 5765 5763 5762 5761 5759 5757 5756 5756 5755 5754 5752 5750 5749 5747 5745 5744 5742 5740 5738 5736 5735 5734 5733 5731 5728 5724 5721 5721
5797 5796 5795 5793 5791 5789 5787 5784 5781 5778 5776 5775 5773 5770 5768 5766 5764 5763 5761 5759 5758 5757 5756 5755 5753 5751 5749 5747 5746 5744 5742 5740 5739 5737 5735 5734 5733 5732 5731 5730 5728 5723 5718
5796 5795 5794 5793 5791 5789 5787 5784 5781 5778 5776 5774 5772 5771 5768 5766 5764 5762 5760 5759 5758 5756 5755 5753 5751 5750 5748 5746 5744 5742 5740 5739 5737 5736 5734 5732 5732 5731 5730 5729 5727 5725 5722
5794 5793 5792 5792 5789 5787 5784 5781 5778 5777 5774 5772 5770 5768 5767 5765 5763 5761 5759 5757 5756 5755 5753 5751 5749 5748 5746 5745 5742 5740 5739 5737 5735 5734 5733 5731 5730 5729 5728 5727 5725 5724 5722
5792 5791 5789 5787 5785 5782 5780 5778 5776 5774 5772 5770 5768 5766 5764 5762 5760 5759 5757 5756 5754 5753 5751 5749 5747 5746 5744 5743 5741 5739 5737 5735 5733 5732 5730 5729 5728 5726 5726 5724 5723 5722 5721
5786 5785 5783 5781 5779 5778 5777 5775 5773 5771 5769 5767 5764 5762 5760 5758 5757 5755 5754 5753 5751 5749 5748 5746 5744 5743 5742 5740 5739 5737 5736 5734 5732 5730 5729 5727 5726 5724 5723 5722 5721 5720 5720
5781 5779 5776 5775 5775 5773 5773 5772 5770 5768 5766 5763 5760 5757 5756 5755 5753 5752 5750 5749 5747 5745 5743 5742 5741 5739 5738 5737 5736 5734 5732 5731 5730 5729 5727 5726 5724 5723 5721 5720 5719 5718 5716
5776 5774 5772 5771 5770 5769 5768 5768 5766 5765 5762 5759 5756 5754 5753 5752 5750 5748 5746 5745 5743 5742 5740 5738 5737 5736 5735 5734 5732 5730 5729 5727 5726 5725 5725 5724 5723 5722 5720 5719 5717 5715 5713
5771 5770 5769 5767 5765 5765 5763 5762 5761 5760 5757 5754 5752 5750 5748 5746 5745 5743 5741 5740 5738 5737 5735 5733 5732 5731 5731 5730 5728 5727 5725 5724 5722 5721 5721 5721 5720 5720 5718 5717 5716 5714 5711
5766 5764 5763 5762 5761 5760 5759 5756 5755 5754 5751 5749 5747 5745 5743 5741 5740 5738 5736 5734 5733 5732 5730 5729 5727 5726 5726 5725 5724 5723 5722 5721 5720 5719 5718 5718 5718 5717 5715 5713 5712 5710 5709
5760 5760 5758 5757 5757 5755 5753 5751 5749 5747 5744 5742 5740 5739 5737 5736 5734 5733 5731 5730 5728 5726 5725 5724 5723 5722 5722 5721 5720 5719 5717 5717 5717 5716 5715 5714 5713 5713 5711 5709 5706 5706 5705
5755 5754 5753 5752 5750 5749 5747 5744 5741 5738 5736 5735 5733 5732 5731 5729 5728 5727 5726 5725 5723 5721 5720 5719 5719 5718 5718 5716 5715 5713 5712 5712 5712 5712 5712 5710 5709 5708 5706 5703 5701 5700 5700
5749 5747 5746 5744 5742 5741 5738 5735 5732 5730 5729 5728 5727 5725 5724 5723 5722 5721 5720 5718 5717 5716 5715 5714 5713 5713 5712 5712 5710 5708 5707 5706 5707 5707 5706 5705 5704 5703 5700 5698 5696 5694 5695
5741 5739 5738 5735 5733 5732 5729 5726 5723 5721 5722 5721 5720 5719 5717 5716 5715 5714 5713 5711 5709 5708 5707 5707 5707 5707 5707 5707 5706 5704 5702 5701 5701 5700 5701 5700 5698 5696 5694 5693 5692 5691 5689
5732 5730 5728 5726 5724 5723 5720 5717 5715 5715 5714 5713 5712 5712 5710 5709 5708 5706 5704 5703 5701 5700 5699 5699 5699 5700 5701 5701 5701 5699 5697 5696 5695 5695 5695 5694 5692 5691 5689 5687 5687 5684 5682
5722 5721 5718 5716 5715 5714 5712 5709 5708 5707 5705 5703 5702 5702 5702 5700 5699 5697 5695 5694 5693 5692 5691 5691 5691 5692 5693 5693 5693 5692 5691 5689 5689 5690 5689 5687 5685 5683 5682 5681 5679 5677 5675
5712 5711 5709 5707 5705 5706 5705 5702 5701 5699 5697 5695 5694 5693 5692 5691 5690 5688 5687 5685 5684 5683 5683 5683 5684 5685 5685 5686 5686 5685 5684 5682 5681 5681 5681 5679 5677 5676 5675 5673 5672 5670 5668
5702 5701 5700 5698 5697 5696 5696 5695 5694 5691 5689 5687 5686 5685 5683 5682 5680 5679 5678 5677 5677 5676 5676 5676 5676 5677 5677 5678 5677 5675 5675 5675 5675 5673 5672 5671 5669 5668 5667 5665 5664 5663 5661
5694 5692 5690 5689 5688 5688 5687 5686 5685 5683 5681 5679 5678 5677 5675 5674 5673 5671 5670 5670 5669 5670 5669 5669 5668 5669 5669 5669 5668 5668 5667 5666 5665 5663 5664 5663 5661 5660 5660 5658 5657 5655 5654